Back to catalog

STARLINK-35916

AliveCommunicationsVLEO
NORAD 66504·PAYLOAD·🇺🇸 United States

Launched Nov 15, 2025 from Cape Canaveral Space Force Station

Loading…

Next Passes (next 24 hours)

TLE

FreshSource: CelesTrak SupGP

Epoch: Sep 14, 2026, 22:42 UTC

1 66504C 25263V   26257.94631944 -.00014171  00000+0 -51321-3 0  2578
2 66504  43.0042   5.5522 0001786 269.8680 358.2351 15.27589577    10

Track STARLINK-35916 in real time with AllMySat

Download on the App Store